Escanaba, MI

1:49 AM EDT on July 22, 2017 (GMT -0400)
Delta County

Weather History for KESC - January, 2014

Change the Weather History Date:

Sunday, January 26, 2014

  Actual Average Record
Temperature  
Mean Temperature 2 °F -  
Max Temperature 6 °F 25 °F 42 °F (2002)
Min Temperature -2 °F 7 °F -18 °F (2009)
Degree Days  
Heating Degree Days 63    
Moisture  
Dew Point -4 °F    
Average Humidity 76    
Maximum Humidity 92    
Minimum Humidity 61    
Precipitation  
Precipitation 0.00 in - - ()
Sea Level Pressure  
Sea Level Pressure 29.43 in    
Wind  
Wind Speed 7 mph (WNW)    
Max Wind Speed 22 mph    
Max Gust Speed 33 mph    
Visibility 5 miles    
Events      
Averages and records for this station are not official NWS values.
T = Trace of Precipitation, MM = Missing Value Source: NWS Daily Summary

Daily Weather History Graph

Daily Weather History Graph

Search for Another Location

Airport or City:

Trip Planner

Search our weather history database for the weather conditions in past years. The results will help you decide how hot, cold, wet, or windy it might be!

Date:

Astronomy

Jan. 26, 2014 Rise Set
Actual Time 8:16 AM EST 5:45 PM EST
Civil Twilight 7:44 AM EST 6:18 PM EST
Nautical Twilight 7:08 AM EST 6:54 PM EST
Astronomical Twilight 6:33 AM EST 7:29 PM EST
Moon 3:54 AM EST (1/26) 1:33 PM EST (1/26)
Length of Visible Light 10h 33m
Length of Day
9h 29m
Waning Crescent, 24% of the Moon is Illuminated
Jan 26
Waning Crescent
Jan 30
New
Feb 6
First Quarter
Feb 14
Full
Feb 22
Last Quarter

Hourly Weather History & Observations

Time (EST) Temp. Windchill Dew Point Humidity Pressure Visibility Wind Dir Wind Speed Gust Speed Precip Events Conditions
12:15 AM -2.2 °F -16.8 °F -9.4 °F 71% 29.64 in 10.0 mi West 8.1 mph - N/A   Overcast
12:35 AM -2.2 °F -15.6 °F -11.2 °F 66% 29.64 in 10.0 mi West 6.9 mph - N/A   Mostly Cloudy
12:55 AM -2.2 °F -16.8 °F -9.4 °F 71% 29.63 in 10.0 mi WSW 8.1 mph - N/A   Overcast
1:15 AM -2.2 °F -18.0 °F -9.4 °F 71% 29.62 in 10.0 mi WSW 9.2 mph - N/A   Overcast
1:35 AM -2.2 °F -18.0 °F -9.4 °F 71% 29.61 in 10.0 mi West 9.2 mph - N/A   Overcast
1:55 AM -2.2 °F -15.6 °F -9.4 °F 71% 29.59 in 10.0 mi West 6.9 mph - N/A   Overcast
2:15 AM -2.2 °F -14.2 °F - N/A% 29.58 in 10.0 mi WSW 5.8 mph - N/A   Overcast
2:35 AM -2.2 °F -15.6 °F -9.4 °F 71% 29.57 in 10.0 mi West 6.9 mph - N/A   Overcast
2:55 AM -2.2 °F -16.8 °F -9.4 °F 71% 29.57 in 10.0 mi West 8.1 mph - N/A   Overcast
3:15 AM -2.2 °F -15.6 °F -9.4 °F 71% 29.57 in 10.0 mi West 6.9 mph - N/A   Overcast
3:35 AM -2.2 °F -18.0 °F -11.2 °F 66% 29.57 in 10.0 mi West 9.2 mph - N/A   Overcast
3:55 AM -2.2 °F -16.8 °F -9.4 °F 71% 29.58 in 10.0 mi West 8.1 mph - N/A   Overcast
4:15 AM -2.2 °F -15.6 °F -9.4 °F 71% 29.57 in 10.0 mi West 6.9 mph - N/A   Overcast
4:35 AM -2.2 °F -16.8 °F -9.4 °F 71% 29.57 in 10.0 mi West 8.1 mph - N/A   Overcast
4:55 AM -2.2 °F -15.6 °F -9.4 °F 71% 29.56 in 10.0 mi West 6.9 mph - N/A   Overcast
5:15 AM -2.2 °F -14.2 °F -9.4 °F 71% 29.55 in 10.0 mi West 5.8 mph - N/A   Overcast
5:35 AM -2.2 °F -14.2 °F -7.6 °F 78% 29.54 in 10.0 mi WNW 5.8 mph - N/A   Overcast
5:55 AM -2.2 °F -14.2 °F -9.4 °F 71% 29.54 in 10.0 mi West 5.8 mph - N/A   Overcast
6:15 AM -2.2 °F -14.2 °F -7.6 °F 78% 29.53 in 3.0 mi West 5.8 mph - N/A   Overcast
6:35 AM -2.2 °F -10.4 °F -7.6 °F 78% 29.52 in 3.0 mi West 3.5 mph - N/A   Overcast
6:55 AM -2.2 °F - -7.6 °F 78% 29.50 in 2.5 mi Calm Calm - N/A   Overcast
7:15 AM -2.2 °F - -5.8 °F 85% 29.50 in 8.0 mi Calm Calm - N/A   Overcast
7:35 AM -2.2 °F - -7.6 °F 78% 29.50 in 10.0 mi Calm Calm - N/A   Overcast
7:55 AM -0.4 °F - -7.6 °F 72% 29.49 in 9.0 mi Calm Calm - N/A   Overcast
8:15 AM -2.2 °F - -7.6 °F 78% 29.48 in 3.0 mi Calm Calm - N/A   Overcast
8:35 AM -2.2 °F - -5.8 °F 85% 29.47 in 3.0 mi Calm Calm - N/A   Overcast
8:55 AM -2.2 °F - -7.6 °F 78% 29.45 in 3.0 mi Calm Calm - N/A   Overcast
9:15 AM -2.2 °F - -5.8 °F 85% 29.42 in 2.5 mi Calm Calm - N/A   Overcast
9:35 AM -0.4 °F - -5.8 °F 78% 29.43 in 2.5 mi Calm Calm - N/A   Overcast
9:55 AM -0.4 °F - -7.6 °F 72% 29.41 in 2.5 mi Calm Calm - N/A   Overcast
10:15 AM -0.4 °F - -4.0 °F 85% 29.40 in 2.0 mi Calm Calm - N/A   Overcast
10:35 AM -0.4 °F -8.3 °F -2.2 °F 92% 29.41 in 1.0 mi NW 3.5 mph - N/A   Overcast
10:55 AM 1.4 °F -6.2 °F -2.2 °F 85% 29.41 in 1.2 mi WNW 3.5 mph - N/A   Overcast
11:15 AM 1.4 °F - -2.2 °F 85% 29.41 in 1.0 mi Calm Calm - N/A   Overcast
11:35 AM 1.4 °F - -2.2 °F 85% 29.38 in 1.0 mi Calm Calm - N/A   Overcast
11:55 AM 3.2 °F - -0.4 °F 85% 29.37 in 0.8 mi Calm Calm - N/A   Overcast
12:15 PM 3.2 °F - -0.4 °F 85% 29.35 in 0.5 mi Calm Calm - N/A   Overcast
12:35 PM 3.2 °F - -2.2 °F 78% 29.32 in 0.8 mi Calm Calm - N/A   Overcast
12:55 PM 5.0 °F -5.6 °F 1.4 °F 85% 29.31 in 1.2 mi West 5.8 mph - N/A   Overcast
1:15 PM 6.8 °F -2.0 °F 1.4 °F 79% 29.29 in 2.0 mi West 4.6 mph - N/A   Overcast
1:35 PM 6.8 °F -0.1 °F -0.4 °F 72% 29.28 in 7.0 mi West 3.5 mph - N/A   Mostly Cloudy
1:55 PM 6.8 °F - -0.4 °F 72% 29.27 in 5.0 mi Calm Calm - N/A   Overcast
2:15 PM 3.2 °F -7.8 °F -2.2 °F 78% 29.27 in 3.0 mi East 5.8 mph - N/A   Overcast
2:35 PM 3.2 °F -6.2 °F 1.4 °F 92% 29.26 in 1.5 mi East 4.6 mph - N/A   Overcast
2:55 PM 5.0 °F -4.1 °F -0.4 °F 78% 29.24 in 1.5 mi East 4.6 mph - N/A   Overcast
3:15 PM 5.0 °F - -0.4 °F 78% 29.26 in 4.0 mi Calm Calm - N/A   Overcast
3:35 PM 6.8 °F - -0.4 °F 72% 29.26 in 6.0 mi Calm Calm - N/A   Overcast
3:55 PM 6.8 °F -4.8 °F 3.2 °F 85% 29.26 in 5.0 mi West 6.9 mph - N/A   Overcast
4:15 PM 6.8 °F -4.8 °F -0.4 °F 72% 29.27 in 4.0 mi West 6.9 mph - N/A   Overcast
4:35 PM 6.8 °F -3.5 °F 1.4 °F 79% 29.27 in 3.0 mi West 5.8 mph - N/A   Overcast
4:55 PM 6.8 °F -4.8 °F 1.4 °F 79% 29.29 in 3.0 mi West 6.9 mph - N/A   Overcast
5:15 PM 6.8 °F -4.8 °F 1.4 °F 79% 29.29 in 2.5 mi West 6.9 mph - N/A   Overcast
5:35 PM 6.8 °F -5.9 °F 1.4 °F 79% 29.31 in 4.0 mi West 8.1 mph - N/A   Overcast
5:55 PM 6.8 °F -7.8 °F 1.4 °F 79% 29.31 in 4.0 mi West 10.4 mph - N/A   Mostly Cloudy
6:15 PM 6.8 °F -5.9 °F -0.4 °F 72% 29.32 in 3.0 mi WNW 8.1 mph - N/A   Overcast
6:35 PM 6.8 °F -7.8 °F 1.4 °F 79% 29.33 in 3.0 mi WNW 10.4 mph - N/A   Overcast
6:55 PM 6.8 °F -7.8 °F 1.4 °F 79% 29.34 in 3.0 mi WNW 10.4 mph - N/A   Overcast
7:15 PM 6.8 °F -8.6 °F -0.4 °F 72% 29.35 in 4.0 mi WNW 11.5 mph - N/A   Overcast
7:35 PM 6.8 °F -8.6 °F -0.4 °F 72% 29.36 in 3.0 mi WNW 11.5 mph - N/A   Overcast
7:55 PM 6.8 °F -9.3 °F -0.4 °F 72% 29.36 in 4.0 mi WNW 12.7 mph - N/A   Overcast
8:15 PM 5.0 °F -11.6 °F -0.4 °F 78% 29.37 in 5.0 mi WNW 12.7 mph 17.3 mph N/A   Overcast
8:35 PM 6.8 °F -8.6 °F -0.4 °F 72% 29.38 in 5.0 mi WNW 11.5 mph - N/A   Overcast
8:55 PM 6.8 °F -9.3 °F -0.4 °F 72% 29.38 in 4.0 mi WNW 12.7 mph 21.9 mph N/A   Overcast
9:15 PM 6.8 °F -10.0 °F -0.4 °F 72% 29.39 in 10.0 mi WNW 13.8 mph 19.6 mph N/A   Overcast
9:35 PM 6.8 °F -11.8 °F -0.4 °F 72% 29.40 in 9.0 mi NW 17.3 mph 21.9 mph N/A   Overcast
9:55 PM 6.8 °F -11.8 °F -0.4 °F 72% 29.41 in 3.0 mi NW 17.3 mph 26.5 mph N/A   Overcast
10:15 PM 6.8 °F -13.8 °F -0.4 °F 72% 29.44 in 5.0 mi NNW 21.9 mph 31.1 mph N/A   Overcast
10:35 PM 5.0 °F -14.7 °F -5.8 °F 61% 29.46 in 2.5 mi NW 18.4 mph 33.4 mph N/A   Overcast
10:55 PM 3.2 °F -15.9 °F -5.8 °F 66% 29.47 in 3.0 mi NW 16.1 mph 32.2 mph N/A   Overcast
11:15 PM 3.2 °F -15.9 °F -5.8 °F 66% 29.50 in 3.0 mi NNW 16.1 mph 28.8 mph N/A   Overcast
11:35 PM 3.2 °F -15.3 °F -5.8 °F 66% 29.52 in 9.0 mi NNW 15.0 mph 25.3 mph N/A   Overcast
11:55 PM 1.4 °F -18.2 °F -9.4 °F 61% 29.54 in 3.0 mi NW 16.1 mph 32.2 mph N/A   Overcast